Location: Boulin
(43.2500°N, 0.1333°E)
Time: 15:07:16
(UTC+00:00)

Cosmos 2227 Rocket - Pass Details

Date: 11 December 2025
Orbit: 838 x 844 km, 71.0° (Epoch: 19 January)

Event Time Altitude Azimuth Distance (km) Brightness Sun altitude
Rises 16:53:11 0° 341° (NNW) 3,401 5.3 -5.5°
Reaches altitude 10° 16:55:52 10° 351° (N) 2,464 4.5 -5.9°
Maximum altitude 17:01:00 35° 56° (NE) 1,341 2.8 -6.8°
Drops below altitude 10° 17:06:07 10° 121° (ESE) 2,454 4.3 -7.6°
Sets 17:08:46 0° 130° (SE) 3,386 5.1 -8.0°
